Tender Notices

Tenders for the various  departments of  Mormugao Port Trust are published under each section as follows:

General administrative Department

General administrative Department

Sr. No.Date of UploadTender TitleTender No.Type of TenderEstimated Cost (Rs.) Bid Submission Closing Date and TimeTender Opening Date and TimeDownload NIT
Finance Department

Finance-Department

Sr. No.Date of UploadTender TitleTender No.Type of TenderEstimated Cost (Rs.) Bid Submission Closing Date and TimeTender Opening Date and TimeDownload NIT
119/12/2021Tender for Providing Comprehensive AMC Support and Renewal of License Subscription of Fortiner FG 200 D Firewall FA/IT/(7-FIREWALL)/2022/1162 Tender 29.10.2022 at 10.00 hrs 29.10.2022 at 10.30 hrs
Medical Department

Medical-Department

List of Medicines Projected for Procurement by Medical Department for the year 2020-21, 22 & 23

1. List of Medicines
Sr. No.Date of UploadTender TitleTender No.Type of TenderEstimated Cost (Rs.) Bid Submission Closing Date and TimeTender Opening Date and TimeDownload NIT
4930/09/2022 Tab Sacubitril 24mg+Vaisartan 26mg MD/PS/613 LIMITED TENDER 07-10-2022 at 15.00 hrs 07-10-2022 at 15.30 hrs
4830/09/2022 Caps. Tacrolimus 0.5mg (Caps. Vingraf 0.5mg ) MD/PS/616 LIMITED TENDER 07-10-2022 at 15.00 hrs 07-10-2022 at 15.30 hrs
4730/09/2022 Caps. Tacrolimus 1mg (Caps. Vingraf 1mg ). MD/PS/615 LIMITED TENDER 07-10-2022 at 15.00 hrs 07-10-2022 at 15.30 hrs
4630/09/2022 Tab Mycophenolate ( Mofetil 500mg). MD/PS/614 LIMITED TENDER 07-10-2022 at 15.00 hrs 07-10-2022 at 15.30 hrs
4528/09/2022 Tab. Carvedilol (3.125mg). MD/PS/609 LIMITED TENDER 14-10-2022 at 15.00 hrs 14-10-2022 at 15.30 hrs
4428/09/2022 Luliconazole 1% lotion. MD/PS/603 LIMITED TENDER 14-10-2022 at 15.00 hrs 14-10-2022 at 15.30 hrs
4328/09/2022 Capsule Eicosapentaenoic Acid 180mg & Docosahexaenoic Acid 120mg. MD/PS/601 LIMITED TENDER 12-10-2022 at 15.00 hrs 12-10-2022 at 15.30 hrs
4228/09/2022 Tab. Silodosin 4mg + Dutasteride 0.5mg. MD/PS/608 LIMITED TENDER 12-10-2022 at 15.00 hrs 12-10-2022 at 15.30 hrs
4128/09/2022 Tab Potassium Citrate with Magnesium. MD/PS/607 LIMITED TENDER 12-10-2022 at 15.00 hrs 12-10-2022 at 15.30 hrs
4028/09/2022 Tab. Deflazacort 6mg. MD/PS/602 LIMITED TENDER 12-10-2022 at 15.00 hrs 12-10-2022 at 15.30 hrs
3928/09/2022 CPM 2-4mg + Paracetamol 325- 500mg + Phenyl Ephrine 5-10mg tabs without codeine. MD/PS/591 LIMITED TENDER 12-10-2022 at 15.00 hrs 12-10-2022 at 15.30 hrs
3828/09/2022 Avipattikar Choorna (Pack of 40-100gms). MD/PS/596 LIMITED TENDER 12-10-2022 at 15.00 hrs 12-10-2022 at 15.30 hrs
3728/09/2022 Clobetasol Propionate Cream/Ointment (10-15 gm). MD/PS/606 LIMITED TENDER 07-10-2022 at 15.00 hrs 07-10-2022 at 15.30 hrs
3628/09/2022 Lisinopril 5mg Tabs. MD/PS/605 LIMITED TENDER 07-10-2022 at 15.00 hrs 07-10-2022 at 15.30 hrs
3527/09/2022 Mahayograja Guggul(Pack of 30-60 tabs). MD/PS/588 LIMITED TENDER 07-10-2022 at 15.00 hrs 07-10-2022 at 15.30 hrs
3427/09/2022 Lactulose 90-100ml syrup. MD/PS/599 LIMITED TENDER 12-10-2022 at 15.00 hrs 12-10-2022 at 15.30 hrs
3327/09/2022 Antihemorrhoidal Oint. Beclomethasone 0.025% + Phenylephrerin 0.1% + Lignocaine 2.5% +Chlorocresol (20 gms – 30gms packing) MD/PS/598 LIMITED TENDER 07-10-2022 at 15.00 hrs 07-10-2022 at 15.30 hrs
3227/09/2022 Tab. Ticagrelor 90mg. MD/PS/597 LIMITED TENDER 12-10-2022 at 15.00 hrs 12-10-2022 at 15.30 hrs
3127/09/2022 Tab. Silodosin 4mg. MD/PS/595 LIMITED TENDER 30-10-2022 at 15.00 hrs 30-10-2022 at 15.30 hrs
3027/09/2022 Calamine 8% Lotion 50-100 ml. MD/PS/593 LIMITED TENDER 12-10-2022 at 15.00 hrs 12-10-2022 at 15.30 hrs
2927/09/2022 Iron any Salt 100mg (without Ascorbate) + Folic Acid 1.5mg. MD/PS/600 LIMITED TENDER 03-10-2022 at 15.00 hrs 03-10-2022 at 15.30 hrs
2827/09/2022 Laxative Susp. 170-200ml. MD/PS/580 LIMITED TENDER 12-10-2022 at 15.00 hrs 12-10-2022 at 15.30 hrs
2727/09/2022 ECG Paper Rolls 105mm x 20 mtrs for Model True Beat 100F ECG Machine. MD/PS/569 LIMITED TENDER 07-10-2022 at 15.00 hrs 07-10-2022 at 15.30 hrs
2627/09/2022 Tab. Glimeperide 1mg. MD/PS/589 LIMITED TENDER 07-10-2022 at 15.00 hrs 07-10-2022 at 15.30 hrs
2527/09/2022 Tab. Losartan 25mg. MD/PS/586 LIMITED TENDER 07-10-2022 at 15.00 hrs 07-10-2022 at 15.30 hrs
2427/09/2022 Vercuronium Bromide 4mg/2ml Amp. MD/PS/585 LIMITED TENDER 28-10-2022 at 15.00 hrs 28-10-2022 at 15.30 hrs
2327/09/2022 Normal Saline 1 litre Plastic Bottle. MD/PS/567 LIMITED TENDER 07-10-2022 at 15.00 hrs 07-10-2022 at 15.30 hrs
2226/09/2022 Tab. Levothyroxine 50mcg.(100 tabs per bottle) MD/PS/594 LIMITED TENDER 30-09-2022 at 15.00 hrs 30-09-2022 at 15.30 hrs
2123/09/2022 1. Glutaraldehyde Solution 2.45% 5 Litre Jar. 2. Disposable Needles 22G MD/Stores/584 LIMITED TENDER 28-09-2022 at 15.00 hrs 28-09-2022 at 15.30 hrs
2020/09/2022 Azithromycin 500mg Tab/Cap. MD/PS/583 LIMITED TENDER 07-10-2022 at 15.00 hrs 07-10-2022 at 15.30 hrs
1920/09/2022 Laxative Susp. 170-200ml. MD/PS/580 LIMITED TENDER 07-10-2022 at 15.00 hrs 07-10-2022 at 15.30 hrs
1820/09/2022 Antithrombotic 15-20gms ‘GEL’ Heparin 200iu. MD/PS/578 LIMITED TENDER 07-10-2022 at 15.00 hrs 07-10-2022 at 15.30 hrs
1720/09/2022 Trihexypenidyl HCL (Benzhexol) 2mg tabs. MD/PS/582 LIMITED TENDER 30-09-2022 at 15.00 hrs 30-09-2022 at 15.30 hrs
1620/09/2022 Mercury Free Thermometer. MD/PS/581 LIMITED TENDER 30-09-2022 at 15.00 hrs 30-09-2022 at 15.30 hrs
1520/09/2022 Clobetasol Prop+ 3% Salicylicacid lotion. MD/PS/579 LIMITED TENDER 30-09-2022 at 15.00 hrs 30-09-2022 at 15.30 hrs
1420/09/2022 Tab. Clinidipine 10mg. MD/PS/576 LIMITED TENDER 30-09-2022 at 15.00 hrs 30-09-2022 at 15.30 hrs
1320/09/2022 Tabs. Paracetamol 650mg. MD/PS/575 LIMITED TENDER 30-09-2022 at 15.00 hrs 30-09-2022 at 15.30 hrs
1220/09/2022 Kofeez Syrup 100. MD/Stores/577 LIMITED TENDER 28-09-2022 at 15.00 hrs 28-09-2022 at 15.30 hrs
1120/09/2022 Lint Absorbent Plain Packet of ½ kg(500gms). MD/PS/555 LIMITED TENDER 28-09-2022 at 15.00 hrs 28-09-2022 at 15.30 hrs
1016/09/2022 Sodium Fusidate 2% Cream/oint 10-15 gms. MD/PS/572 LIMITED TENDER 28-09-2022 at 15.00 hrs 28-09-2022 at 15.30 hrs
916/09/2022 Labtube K2 EDTA (Non Vaccum). MD/PS/565 LIMITED TENDER 28-09-2022 at 15.00 hrs 28-09-2022 at 15.30 hrs
816/09/2022 Urea liquid stable ( UV GLDH kinetic ). MD/PS/564 LIMITED TENDER 28-09-2022 at 15.00 hrs 28-09-2022 at 15.30 hrs
716/09/2022 Tab. Mesalazine 400mg. MD/PS/558 LIMITED TENDER 28-09-2022 at 15.00 hrs 28-09-2022 at 15.30 hrs
612/09/2022 Tab. Alprazolam 0.25mg MD/PS/544 LIMITED TENDER 30-09-2022 at 15.00 hrs 30-09-2022 at 15.30 hrs
508/09/2022 1. Water for injection 5cc amps. 2. Disposable Sterile Plastic Sheet 150 x 140 cms. MD/PS/547 LIMITED TENDER 30-09-2022 at 15.00 hrs 30-09-2022 at 15.30 hrs
408/09/2022 Soft Surgical Paper Adhesive Tape 2.5cms x 9.1 mtrs.(Soft Surgical Paper Adhesive Tape). MD/PS/553 LIMITED TENDER 28-09-2022 at 15.00 hrs 28-09-2022 at 15.30 hrs
308/09/2022 Sterile Disposable Crimp Cap (Preferably Green Colour). MD/PS/552 LIMITED TENDER 28-09-2022 at 15.00 hrs 28-09-2022 at 15.30 hrs
208/09/2022 Methylated Spirit Bottle of 650ml. MD/PS/551 LIMITED TENDER 28-09-2022 at 15.00 hrs 28-09-2022 at 15.30 hrs
107/09/2022 e-tender for Supply, Installation & Commissioning of One No. Random Access Biochemistry Analyzer with AMSC, as per technical specifications at Annexure ‘C’ and with buyback of existing Pictus 400 fully Automated Biochemistry Analyser. MD/PS/541 e-TENDER 28-09-2022 at 17.00 hrs 30-09-2022 at 11.30 hrs
Civil Engineering Department

Civil-Engineering-Department

Sr. No.Date of UploadTender TitleTender No.Type of TenderEstimated Cost (Rs.) Bid Submission Closing Date and TimeTender Opening Date and TimeDownload NIT
627/09/2022 OPERATIONS AND MAINTENANCE OF EXISTING HOSPITAL ON PUBLIC PRIVATE PARTNERSHIP (PPP) BASIS FOR A PERIOD OF 30 YEARS” OR “OPERATE AND MAINTENANCE OF EXISTING 100 BEDDED HOSPITAL INCLUDING UPGRADATION OF EXISTING HOSPITAL FOR THE PURPOSE OF MEDICAL / PARAMEDICAL COLLEGE BY UTILIZING THE SURROUNDING AREA OF PORT TOWNSHIP ON PUBLIC PRIVATE PARTNERSHIP (PPP) BASIS FOR A PERIOD OF 30 YEARS. CE/24/2022 INVITATION OF EXPRESSION OF INTEREST (EOI) 20/10/2022 at 15.00 hrs 21/10/2022 at 15.30 hrs
526/09/2022 Casting of precast RCC slabs for Railway R & D yard. CE/Q-53/2022 Quotation Rs.1,82,587.00 11/10/2022 at 15.00 hrs 11/10/2022 at 15.30 hrs
426/09/2022 Deploying JCB excavator on railway R&D yard for removing cargo dumps (on call basis). CE/Q-48/2022 Quotation Rs.23,400.00 11/10/2022 at 15.00 hrs 11/10/2022 at 15.30 hrs
321/09/2022 Refurbishing of old sofa sets of Guest House, HOD's and Chairman's office in AO Bldg., Headland. CE/Q-51/2022 Quotation Rs. 1,08,300.00 30/09/2022 at 15.00 hrs 30/09/2022 at 15.30 hrs
220/09/2022 Leasing of Mormugao Port Institute at Vasco having approx. Built up area admeasuring 710 sq.m, Paved area 925 sq.m and Open area 2065 sq.m for legally permitted Commercial Activities for the period of 10 years.CE/23/2022e-TENDER 31/10/2022 at 15.30 hrs 01/11/2022 at 15.30 hrs
115/09/2022 Leasing of MPA’s old hospital premises at Baina ( sea front ) for development of Hotel/ Commercial Complex / Malls for a period of 30 years by e- tender cum e- auction process. CE/22/2022e-TENDER 03/10/2022 at 15.00 hrs 04/10/2022 at 15.30 hrs
Mechanical Engineering Department

Mechanical-Engineering-Department

Projection of procurement for the years 2020-21 & 2021-22 in Materials Division of Mechanical Engineering Department

2. Projection for Non-Stock Items <
Sr. No.Date of UploadTender TitleTender No.Type of TenderEstimated Cost (Rs.) Bid Submission Closing Date and TimeTender Opening Date and TimeDownload NIT
1728/09/2022 Supply of Cloth foam leather (Calico) Black 50”w. MM/05/049Budgetary Offer 07/10/2022 at 15.00 hrs 07/10/2022 at 15.30 hrs
1628/09/2022 Printing and supply of Progress register (MM). Each register consisting of 200 sheets(400 Pages) on 57 GSM white ruled paper of size 210 X 340mm. The registers should be center binding with thick card board on both the sides with calicloth. Printing in Bilingual as per the specimen.(B/W). MM/BQ/NS/047 Budgetary Quotation 07/10/2022
1528/09/2022 Supply of Ammonia Paper special quality in size 1.02 X20 meters. MM/BQ/16/046 Budgetary Quotation 07/10/2022
1428/09/2022 1. Supply of White Envelopes of 100 GSM paper of size 110 X 265 mm. Each envelope to be supplied with printing in bilingual as per the specimen in packets of 50 envelopes (coloured logo). 2. Printing & supply of register, with 192 pages, 57 GSM white ruled sheets of good quality, size 190 X 320 mm, bound on front & back with hard cover, calicloth binding, pasted with sky blue black & white printed paper and printing in bilingual on the front cover (paper) as per our specimen (B/W logo) MM/16/0087Enquiry 12/10/2022 at 15.00 hrs 12/10/2022 at 15.30 hrs
1327/09/2022 Supply of UPS 600VA MM/NS/CME/0089Enquiry 12/10/2022 at 15.00 hrs 12/10/2022 at 15.30 hrs
1227/09/2022 Supply of Portland Cement Gr.43 ISI 50kg. HDPE bag.MM/06/0086Enquiry 30/09/2022 at 15.00 hrs 30/09/2022 at 15.30 hrs
1123/09/2022 Providing High Mast lighting facility on newly extended Railway Platform.CME/XEN(E-P)/e-tender/2022/18e-TENDER Rs. 76,18,600.00 excluding GST. 18/10/2022 at 11.30 hrs 19/10/2022 at 11.30 hrs
1022/09/2022 Annual Maintenance Contract for EPABX network in Port for a period of three years.CME/XEN(E-P)/e-tender/2022/17e-TENDER Rs. 18,88,734.00 excluding GST. 13/10/2022 at 11.30 hrs 14/10/2022 at 11.30 hrs
922/09/2022 1. Providing New Copier Machine as per Technical Specifications attached at Annex. A on rental basis for a period of two years as per Technical Specification at Annex -A i. Up to 2000 copies ii. 2001 onwards. BQ MM/NS/GAD/044 Budgetary Quotation 04/10/2022
821/09/2022 1. White Maplitho copier (Xerox) paper 75gsm, in A-4 size (210 mm X 297 mm) in reams of 500 sheets cut in uniform size, Mill packed. 2. Supply of White Maplitho (Xerox) Paper 75 GSM, of size 21.5 X 34.5 cm (Legal) in reams of 500 sheets cut in uniform size Mill packed. MM/BQ/16/042 Budgetary Quotation 30/09/2022
720/09/2022 Supply and Installation of wireless bridge network for CCTV Surveillance System at Port’s Operational Areas. CME/XEN(E-HL)/M-22/03 Budgetary Quotation 30/09/2022 at 11.00 hrs
619/09/2022 Replacement of 05 nos. corroded MS sheet enclosures of Control Panels of the Fire Fighting System with new FRP sheet enclosures at Berth No.8. CME/XEN(E-P)/quotation/2022/09 Quotation Rs. 1,65,300/- (excl. of GST) 27/09/2022 at 11.00 hrs 27/09/2022 at 11.30 hrs
519/09/2022 Cable fault location and rectification of 05 nos. Aluminium armoured LT power cables of Electrical Harbour Section. CME/XEN(E-P)/quotation/2022/08 Quotation Rs. 4,79,350/- (excl. of GST) 30/09/2022 at 11.00 hrs 30/09/2022 at 11.30 hrs
414/09/2022 Budgetary Quotation for Annual load testing of 2nos. EOT Cranes, 2nos. D Shackles, 2nos. wire rope slings and 2nos. pressure testing of air compressors at MMS/Baina workshop for the period of two years 2023-24. CME/XEN(M)/EOT-TESTING/2022 Budgetary Quotation 03/10/2022 at 15.30 hrs
313/09/2022 Engagement of Consultant for the work of augmentation of firefighting facilities at Berth No. 8 of MPA. CME / PD / VIII / 2022 REQUEST FOR PROPOSAL (RFP) Extended to 17/10/2022 at 11.00 hrsExtended to 17/10/2022 at 11.30 hrs
Arbitration Rules-SAROD Ports
29/09/2022 ADDENDUM-I
29/09/2022 ADDENDUM-II
Traffic Management Department

Traffic Management Department

Sr. No.Date of UploadTender TitleTender No.Type of TenderEstimated Cost (Rs.) Bid Submission Closing Date and TimeTender Opening Date and Time Download NIT
Marine Department

Marine-Department

Sr. No.Date of UploadTender TitleTender No.Type of TenderEstimated Cost (Rs.) Bid Submission Closing Date and TimeTender Opening Date and Time Download NIT
107/09/2022 Disposal bilge water from Port crafts. DC/SE(M)/63/09/2022 Quotation 15/09/2022 at 15:00 Hrs 15/09/2022 at 15:30 Hrs
Tenders & Notices from Ministry/IPA and Other Organisations

Tenders from Ministry/IPA and Other Organisations

Sr. No.Date of UploadTender TitleTender No.Type of TenderBid Submission Closing Date and TimeTender Opening Date and Time Download NIT
214/05/2022 Global Expression of Interest for onboarding Logistics Service Providers with NL Marine as Latch-Ons. EOI22.06.2022 at 15.00 hrs Extended 22.06.2022 at 15.30 hrs Extended
30/05/2022Corrigendum - I
15/06/2022Addendum 2
131/07/2021 Invitation for Expression of Interest (EoI) “Development of Seafarers Centre in Chennai Port on Public-Private-Partnership (PPP) mode”. EOI 18.08.2021

Trade Circular

Sr. No.Date of Upload Title No.Type Download NIT
120/06/2022 Release of BETA Version of National Logistics Portal Marine Trade Circular